Regional Weather Roundup
Issued by NWS

Home | Current Version | Previous Version | Graphics & Text | Print | Product List | Glossary On
Versions: 1 2 3 4 5 6 7 8 9 10 11 12 13 14 15 16 17 18 19 20 21 22 23 24 25 26 27 28 29 30 31 32 33 34 35 36 37 38 39 40 41 42 43 44 45 46 47 48 49 50
000
ASUS45 KTFX 292319
RWRMT
MONTANA HOURLY WEATHER ROUNDUP
NATIONAL WEATHER SERVICE GREAT FALLS MT
519 PM MDT FRI AUG 29 2014

NOTE: "FAIR" INDICATES FEW OR NO CLOUDS BELOW 12000 FEET WITH NO
SIGNIFICANT WEATHER AND/OR OBSTRUCTIONS TO VISIBILITY.

* THESE STATIONS ARE NOT UNDER NWS QUALITY CONTROL. THEY DO NOT
   REPORT WEATHER SUCH AS PRECIPITATION OR FOG.

MTZ001>007-043-300000-
WEST OF THE DIVIDE
CITY           SKY/WX    TMP DP  RH WIND       PRES   REMARKS
KALISPELL      FAIR      81  43  26 S14       29.80F
MISSOULA       CLEAR     86  36  17 VRB3      29.85F
BUTTE          CLEAR     79  34  20 S15G22    29.98F
MULLAN PASS    CLEAR     66  34  31 N/A       30.02F
* LINCOLN      N/A       80  37  21 SW5G15     N/A
* LOOKOUT PASS N/A       73  36  26 SE16G22    N/A
* POLSON       N/A       85  43  23 SE3G9      N/A
* RONAN APT    CLEAR     84  41  22 SE8        N/A
* SEELEY LAKE  N/A       81  35  19 NW4G19     N/A
* THOMP F APT  CLEAR     75  40  28 S12G22     N/A
$$

MTZ008-052>055-300000-
SOUTHWEST MONTANA
CITY           SKY/WX    TMP DP  RH WIND       PRES   REMARKS
BOZEMAN        CLEAR     82  45  27 N5        29.92F
DILLON         PTCLDY    81  37  21 W8        29.95F
W YELLOWSTONE  PTCLDY    73  39  29 SW17G22   30.11F
* THREE FORKS  CLEAR     82  61  49 N/A        N/A   HI  83
* BOULDER HILL N/A       77  33  20 VRB1G14    N/A
* MONIDA PASS  N/A       71  41  34 S19G24     N/A
* RAYNOLDS PAS N/A       74  58  58 S14G20     N/A
* WHITEHALL    N/A       86  41  20 SW12G19    N/A
* WISE RIVER   N/A       79  30  17 W15G25     N/A
$$

MTZ009>010-012-014-046-048-049-054-300000-
EAST SLOPES AND CENTRAL MONTANA
CITY           SKY/WX    TMP DP  RH WIND       PRES   REMARKS
CUT BANK       CLEAR     79  45  30 S8        29.85F
GREAT FALLS    PTCLDY    81  37  21 S14       29.86F
HELENA         CLEAR     82  45  27 E10       29.87F
MALMSTROM AFB  PTCLDY    81  37  21 W8G13     29.87F
* CONRAD       CLEAR     81  45  28 SE6        N/A
* EAST GLACIER N/A       72  40  31 W19G26     N/A
* MONARCH      N/A       72  27  19 S11        N/A
* PENDROY      N/A       80  37  21 SE5G13     N/A
* ROGERS PASS  N/A       75  34  22 E9G17      N/A
* SAINT MARY   N/A       73  42  33 SW8G17     N/A
* SWEET GRASS  N/A       76  46  35 SW14G22    N/A
* WHITE SULPH  N/A       79  36  21 SW3G11     N/A
$$

MTZ011-013-016-021-035-040-045-047-050-051-300000-
NORTH CENTRAL MONTANA
CITY           SKY/WX    TMP DP  RH WIND       PRES   REMARKS
HAVRE          PTCLDY    79  46  31 SE7       29.85F
LEWISTOWN      PTCLDY    75  48  39 E14       29.94F
* CHINOOK      CLEAR     73  55  53 E14       29.87F
* FORT BENTON  MOCLDY    81  45  28 E10       29.85F
* CHESTER      N/A       78  42  28 SW4G9      N/A
* DENTON       N/A       79  41  26 SW3        N/A
* GEYSER       N/A       79  39  24 S2G8       N/A
* JUDITH GAP   N/A       73  44  35 SE16G22    N/A
* LOMA         N/A       78  46  32 NE1G6      N/A
$$

MTZ017>020-022>027-061-062-300000-
NORTHEAST MONTANA
CITY           SKY/WX    TMP DP  RH WIND       PRES   REMARKS
GLASGOW        CLEAR     72  52  49 S9        29.94F
GLENDIVE       CLEAR     70  52  53 NE8       29.99S
JORDAN         CLEAR     72  52  49 SE7       29.95F
SIDNEY         CLEAR     72  54  53 E6        29.98S
WOLF POINT     CLEAR     73  48  41 S6        29.95F
* BEAVER HILL  N/A       69  51  53 VRB12      N/A
* CIRCLE       N/A       72  52  49 N/A        N/A
* LINDSAY DVD  N/A       70  49  47 NW4        N/A
* NAVAJO       N/A       72  45  38 S4         N/A
$$

MTZ028>042-056>058-300000-
SOUTHCENTRAL AND SOUTHEAST MONTANA
CITY           SKY/WX    TMP DP  RH WIND       PRES   REMARKS
BAKER          CLEAR     72  52  49 N8        30.00F
BILLINGS       FAIR      75  54  48 E9        29.95F
LIVINGSTON     CLEAR     84  36  18 E5        29.93F
MILES CITY     FAIR      73  52  48 VRB3      29.98S
* LAUREL APT   CLEAR     79  54  42 NE9        N/A
* ROUNDUP APT  CLEAR     75  46  36 E5         N/A
* ALZADA       N/A       72  52  49 NW7        N/A
* HYSHAM       N/A       74  45  36 E4         N/A
* LAME DEER    N/A       68  52  57 NE8        N/A
* REED POINT   N/A       79  53  41 E11G17     N/A
* ROSCOE HILL  N/A       75  40  28 E4G11      N/A
$$

REGIONAL REPORTS...DAKOTAS
CITY           SKY/WX    TMP DP  RH WIND       PRES   REMARKS
WILLISTON      PTCLDY    72  46  40 CALM      29.96F
DICKINSON      FAIR      70  54  57 NE7       29.96F
BEACH          N/A       68  54  61 N6        29.99S
CROSBY         CLEAR     70  45  41 NE7       29.97S
TIOGA          PTCLDY    68  46  45 N5        30.00S
WATFORD CITY   MOCLDY    68  50  53 NE6       29.95S
BISMARCK       CLOUDY    70  57  64 N13       29.93R
GRAND FORKS    CLOUDY    64  57  78 N20G31    29.80R
FARGO          CLOUDY    75  64  69 N/A       29.76R
BUFFALO SD     CLEAR     72  52  49 N10       29.93F
RAPID CITY     CLEAR     79  54  42 N14       29.97F
$$

REGIONAL REPORTS...WYOMING/IDAHO/WASHINGTON
CITY           SKY/WX    TMP DP  RH WIND       PRES   REMARKS
GILLETTE       PTCLDY    73  48  41 N7        30.03S
SHERIDAN       PTCLDY    75  48  39 VRB3      30.00F
CODY           PTCLDY    79  46  31 E8        29.99F
YELLOWSTONE LA PTCLDY    66  37  34 SW8       30.22F
SALMON         PTCLDY    81  55  41 CALM      29.84F HI  81
MULLAN PASS    CLEAR     66  34  31 N/A       30.02S
SAND POINT     PTCLDY    79  45  30 SW8G16    29.80F
SPOKANE        CLOUDY    81  41  24 SW18G28   29.83F
$$

REGIONAL REPORTS...ALBERTA
CITY           SKY/WX    TMP DP  RH WIND       PRES   REMARKS
CALGARY        MOCLDY    70  43  38 S12       29.75F
LETHBRIDGE     MOCLDY    77  43  30 SW10G24   29.79F
MEDICINE HAT   MOCLDY    77  50  39 S17       29.80F
EDMONTON       MOCLDY    68  50  53 SE14G22   29.71F
WATERTON GATE  N/A       73  45  37 SW13G18    N/A
CARDSTON       N/A       75  50  42 S6         N/A
MILK RIVER     N/A       77  48  36 S13G18     N/A
$$

REGIONAL REPORTS...SASKATCHEWAN
CITY           SKY/WX    TMP DP  RH WIND       PRES   REMARKS
SWIFT CURRENT  PTCLDY    70  48  46 S16G22    29.90F
MOOSE JAW      PTCLDY    68  45  44 SE3       29.96F
REGINA         FAIR      68  45  44 NW3       29.97S
VAL MARIE      N/A       70  48  46 S10        N/A
ASSINIBOIA     N/A       70  39  32 SW6        N/A
CORONACH       N/A       68  45  44 S2         N/A

$$



USA.gov is the U.S. government's official web portal to all federal, state and local government web resources and services.